Alexandria, LA

10:06 AM CST on February 07, 2016 (GMT -0600)
Alexandria International

Weather History for KAEX - December, 2010

Change the Weather History Date:

Friday, December 24, 2010

  Actual Average Record
Temperature  
Mean Temperature 47 °F 50 °F  
Max Temperature 62 °F 59 °F 79 °F (2015)
Min Temperature 31 °F 40 °F 8 °F (1989)
Degree Days  
Heating Degree Days 18 16  
Month to date heating degree days 393 353  
Since 1 July heating degree days 684 678  
Moisture  
Dew Point 33 °F    
Average Humidity 63    
Maximum Humidity 89    
Minimum Humidity 36    
Precipitation  
Precipitation 0.00 in 0.16 in 2.94 in (1997)
Month to date precipitation 0.20 5.09  
Year to date precipitation 35.86 54.89  
Snow  
Snow 0.00 in - 0.00 in ()
Month to date snowfall 0.0  
Since 1 July snowfall 0.0  
Snow Depth 0.00 in    
Sea Level Pressure  
Sea Level Pressure 30.14 in    
Wind  
Wind Speed 4 mph (ENE)    
Max Wind Speed 16 mph    
Max Gust Speed 20 mph    
Visibility 10 miles    
Events      
T = Trace of Precipitation, MM = Missing Value Source: NWS Daily Summary

Daily Weather History Graph

Daily Weather History Graph

Search for Another Location

Airport or City:

Trip Planner

Search our weather history database for the weather conditions in past years. The results will help you decide how hot, cold, wet, or windy it might be!

Date:

Astronomy

Dec. 24, 2010 Rise Set
Actual Time 7:06 AM CST 5:13 PM CST
Civil Twilight 6:39 AM CST 5:40 PM CST
Nautical Twilight 6:09 AM CST 6:10 PM CST
Astronomical Twilight 5:39 AM CST 6:40 PM CST
Moon 9:07 PM CST (12/24) 9:37 AM CST (12/24)
Length of Visible Light 11h 00m
Length of Day
10h 06m
Waning Gibbous, 86% of the Moon is Illuminated
Dec 24
Waning Gibbous
Dec 27
Last Quarter
Jan 4
New
Jan 12
First Quarter
Jan 19
Full

Hourly Weather History & Observations

Time (CST) Temp. Windchill Dew Point Humidity Pressure Visibility Wind Dir Wind Speed Gust Speed Precip Events Conditions
12:53 AM 37.9 °F - 28.9 °F 70% 30.23 in 10.0 mi Calm Calm - N/A   Clear
1:53 AM 35.1 °F - 28.9 °F 78% 30.22 in 10.0 mi Calm Calm - N/A   Clear
2:53 AM 32.0 °F - 28.0 °F 85% 30.22 in 10.0 mi Calm Calm - N/A   Clear
3:53 AM 34.0 °F - 30.0 °F 85% 30.23 in 10.0 mi Calm Calm - N/A   Clear
4:53 AM 34.0 °F - 30.0 °F 85% 30.22 in 10.0 mi Calm Calm - N/A   Clear
5:53 AM 34.0 °F - 28.9 °F 82% 30.22 in 10.0 mi Calm Calm - N/A   Clear
6:53 AM 33.1 °F 30.0 °F 28.9 °F 85% 30.22 in 10.0 mi East 3.5 mph - N/A   Clear
7:53 AM 33.1 °F 28.7 °F 28.9 °F 85% 30.21 in 10.0 mi SE 4.6 mph - N/A   Clear
8:53 AM 42.1 °F 36.1 °F 30.9 °F 65% 30.20 in 10.0 mi SE 10.4 mph - N/A   Clear
9:53 AM 46.9 °F - 32.0 °F 56% 30.19 in 10.0 mi SE 11.5 mph - N/A   Clear
10:53 AM 51.1 °F - 34.0 °F 52% 30.19 in 10.0 mi SE 5.8 mph - N/A   Clear
11:53 AM 54.0 °F - 34.0 °F 47% 30.16 in 10.0 mi Variable 3.5 mph - N/A   Clear
12:53 PM 57.9 °F - 35.1 °F 42% 30.13 in 10.0 mi North 3.5 mph - N/A   Clear
1:53 PM 60.1 °F - 35.1 °F 39% 30.10 in 10.0 mi ENE 6.9 mph - N/A   Clear
2:53 PM 62.1 °F - 35.1 °F 37% 30.08 in 10.0 mi East 8.1 mph - N/A   Clear
3:53 PM 62.1 °F - 35.1 °F 37% 30.07 in 10.0 mi ESE 6.9 mph - N/A   Clear
4:53 PM 59.0 °F - 36.0 °F 42% 30.06 in 10.0 mi East 3.5 mph - N/A   Clear
5:53 PM 53.1 °F - 37.0 °F 55% 30.06 in 10.0 mi ENE 3.5 mph - N/A   Clear
6:53 PM 55.0 °F - 36.0 °F 49% 30.06 in 10.0 mi NE 6.9 mph - N/A   Mostly Cloudy
7:53 PM 53.1 °F - 35.1 °F 50% 30.05 in 10.0 mi ENE 3.5 mph - N/A   Clear
8:53 PM 53.1 °F - 35.1 °F 50% 30.06 in 10.0 mi NNE 3.5 mph - N/A   Mostly Cloudy
9:53 PM 52.0 °F - 34.0 °F 50% 30.06 in 10.0 mi ENE 4.6 mph - N/A   Overcast
10:53 PM 52.0 °F - 34.0 °F 50% 30.07 in 10.0 mi NNW 3.5 mph - N/A   Overcast
11:53 PM 51.1 °F - 32.0 °F 48% 30.08 in 10.0 mi NNW 10.4 mph - N/A   Overcast